Content
SEND FEEDBACK

Daily
Averages
Monthly
Summary
United States of America

AGANA, GUAM


Home > North America > United States > Guam
Elevation: 246 feet     Latitude: 13 29N     Longitude: 144 48E

WEATHER
 
SELECT A DAY
Number of Records: 209,044;   Date Range: 1/1/95 - 7/29/14
 
SHARE

PRINT THIS DATA

[ ← Previous Day ]
WEATHER ALMANAC - AUGUST 28, 2013
[ Next Day → ]
[ °C ]   °F
Weather ElementAverageHighLow
Temperature82.8 °F88 °F (12:54 pm)77 °F (5:54 am)
Dewpoint75.5 °F77 °F (2:54 pm)73.9 °F (8:54 am)
Humidity79 %94 % (5:54 am)65 % (12:54 pm)
Barometer29.87 in29.91 in (8:54 am)29.82 in (3:54 pm)
Wind Speed3.1 mph9.2 mph (1:54 pm)
Weather ElementAverage
Visibility10 mi
Wind DirectionENE (57.8 °)

Weather ElementTotal
Precipitation---
Cooling Degree Days17.5 (Base 65)
Growing Degree Days32.5 (Base 50)
Averaged from 23 records on August 28, 2013
WEATHER CONDITIONS BREAKOUT
WIND DIRECTION BREAKOUT
WEATHER BY HOUR - AUGUST 28, 2013
[ °C ]   °F
Local TimeTemperatureDewpointHumidityBarometerVisibilityWind DirectionWind SpeedGust SpeedPrecipitationEventsConditions
1:54 AM79.0 °F75.9 °F90 %29.88 in10.0 miCalmClear
2:54 AM78.1 °F75.0 °F90 %29.86 in10.0 miNE (40°)3.5 mphClear
3:54 AM79.0 °F75.9 °F90 %29.86 in10.0 miCalmClear
4:54 AM78.1 °F75.0 °F90 %29.87 in10.0 miENE (60°)4.6 mphClear
5:54 AM77.0 °F75.0 °F94 %29.87 in10.0 miCalmPartly Cloudy
6:54 AM81.0 °F75.9 °F85 %29.88 in10.0 miENE (60°)3.5 mphPartly Cloudy
7:54 AM84.0 °F75.0 °F74 %29.90 in10.0 miCalmPartly Cloudy
8:54 AM86.0 °F73.9 °F67 %29.91 in10.0 miNNE (20°)3.5 mphClear
9:54 AM86.0 °F73.9 °F67 %29.90 in10.0 miESE (120°)4.6 mphPartly Cloudy
10:54 AM87.1 °F75.9 °F69 %29.89 in10.0 miSSE (150°)5.8 mphPartly Cloudy
11:54 AM87.1 °F75.0 °F67 %29.88 in10.0 miVariable4.6 mphPartly Cloudy
12:54 PM88.0 °F75.0 °F65 %29.85 in10.0 miSE (140°)6.9 mphPartly Cloudy
1:54 PM88.0 °F75.9 °F67 %29.83 in10.0 miSSE (160°)9.2 mphPartly Cloudy
2:54 PM86.0 °F77.0 °F74 %29.83 in10.0 miSE (130°)8.1 mphScattered Clouds
3:54 PM86.0 °F77.0 °F74 %29.82 in10.0 miSSE (150°)5.8 mphScattered Clouds
4:54 PM84.9 °F75.0 °F72 %29.83 in10.0 miSE (130°)5.8 mphPartly Cloudy
5:54 PM84.9 °F75.0 °F72 %29.85 in10.0 miSouth (170°)4.6 mphClear
6:54 PM82.9 °F75.9 °F79 %29.87 in10.0 miCalmClear
7:54 PM81.0 °F75.0 °F82 %29.88 in10.0 miCalmClear
8:54 PM81.0 °F75.9 °F85 %29.89 in10.0 miCalmClear
9:54 PM81.0 °F75.9 °F85 %29.91 in10.0 miCalmClear
10:54 PM79.0 °F75.9 °F90 %29.91 in10.0 miCalmClear
11:54 PM79.0 °F75.9 °F90 %29.90 in10.0 miCalmClear
Hourly data recorded from PGUM, located miles away from Agana, Guam







STORIES FROM OUR PARTNERS